Regional Weather Roundup
Issued by NWS

Home | Current Version | Previous Version | Text Only | Print | Product List | Glossary On
Versions: 1 2 3 4 5 6 7 8 9 10 11 12 13 14 15 16 17 18 19 20 21 22 23 24 25 26 27
000
ASUS44 KBMX 230410
RWRAL

ALABAMA REGIONAL WEATHER ROUNDUP
NATIONAL WEATHER SERVICE BIRMINGHAM AL
1000 PM CST WED NOV 22 2017

NOTE: "FAIR" INDICATES FEW OR NO CLOUDS BELOW 12,000 FEET
WITH NO SIGNIFICANT WEATHER AND/OR OBSTRUCTIONS TO VISIBILITY.

THE REMARK "TC" DENOTES TEMPERATURE IN DEGREES CELSIUS.

ALZ001>011-014-016>018-020-230500-
NORTH ALABAMA

CITY           SKY/WX    TMP DP  RH WIND       PRES   REMARKS
MUSCLE SHOALS  CLEAR     40  24  53 NE7       30.23S
HUNTSVILLE     CLEAR     38  27  64 NE5       30.20R WCI  34
DECATUR        CLEAR     36  27  69 N6        30.21S WCI  31
HALEYVILLE     FAIR      34  25  69 N3        30.21R
GADSDEN        CLEAR     39  31  72 CALM      30.16S
$$

ALZ012-013-022-023-030>036-040>044-230500-
WEST CENTRAL ALABAMA

CITY           SKY/WX    TMP DP  RH WIND       PRES   REMARKS
TUSCALOOSA     CLEAR     41  30  65 N5        30.18R
DEMOPOLIS        N/A     40  32  72 CALM      30.17R
$$

ALZ015-024>026-033>036-041>044-230500-
CENTRAL ALABAMA

CITY           SKY/WX    TMP DP  RH WIND       PRES   REMARKS
BIRMINGHAM     CLEAR     42  27  55 N9        30.17F
MONTGOMERY     PTCLDY    48  35  60 N7        30.13R
SHELBY CO ARPT CLEAR     44  29  55 N5        30.14S
MAXWELL AFB    PTCLDY    48  36  63 N7        30.11R
GREENVILLE     FAIR      49  34  56 NW7       30.10R
SELMA          FAIR      46  32  57 N12       30.13S
PRATTVILLE     FAIR      46  33  62 N5        30.12R
BESSEMER       FAIR      42  27  55 N10       30.15S
TALLADEGA      FAIR      42  32  67 N3        30.15S
PELL CITY      CLEAR     36  32  87 CALM      30.15S
MARION         FAIR      43  30  59 N8        30.14S
SYLACAUGA      FAIR      42  34  72 CALM      30.14S
$$

ALZ019-021-028-029-037-038-045>048-230500-
EAST CENTRAL ALABAMA

CITY           SKY/WX    TMP DP  RH WIND       PRES   REMARKS
ANNISTON       CLOUDY    44  30  57 VRB3      30.14S
ALEXANDER CITY CLOUDY    45  33  63 N6        30.12R
AUBURN         PTCLDY    49  30  48 N12       30.10S
$$

ALZ051>064-230500-
SOUTHWEST ALABAMA

CITY           SKY/WX    TMP DP  RH WIND       PRES   REMARKS
MOBILE         PTCLDY    50  38  63 N10       30.12S
BROOKLEY FIELD CLEAR     53  41  63 N13       30.11F
EVERGREEN      CLEAR     47  39  74 N5        30.11S
$$

ALZ049-050-065>069-230500-
SOUTHEAST ALABAMA

CITY           SKY/WX    TMP DP  RH WIND       PRES   REMARKS
DOTHAN         CLOUDY    56  44  64 N5        30.09S
OZARK          MOCLDY    55  43  64 N5        30.06S
TROY           CLOUDY    49  41  74 N6        30.10R
EUFAULA        FAIR      54  43  66 VRB3      30.07R
$$




USA.gov is the U.S. government's official web portal to all federal, state and local government web resources and services.